GLOBALSTAR M070 [+]

Last updated on Fri Dec 29 2023 00:02:56 GMT+0000 (Coordinated Universal Time)

1 32264U 07048B 23362.12884029 -.00000078 00000+0 14624-3 0 9991 2 32264 51.9769 324.5518 0000754 26.9258 54.9393 12.62283493746822

Satellite not in orbit

GLOBALSTAR M070 [+]